GW5732 Weather Reports


time (UTC)temp
C
wind
direction
speed
KPH
gust
KPH
rain 1hr
cm
rain 24hr
cm
rain mn
cm
humidity
%
barometer
mb
20260504110444 15 233 1.6 3.2 0.00 0.00 0.00 79 1006.1
20260504100407 15 244 0.0 0.0 0.00 0.00 0.00 78 1006.6
20260504081800 16 284 1.6 1.6 0.00 0.00 0.00 74 1006.9
20260504081256 16 227 1.6 1.6 0.00 0.00 0.00 74 1006.6
20260504080753 15 291 1.6 3.2 0.00 0.00 0.00 75 1006.8
20260504080249 16 291 1.6 1.6 0.00 0.00 0.00 75 1006.8
20260504070217 17 245 9.7 11.3 0.00 0.00 0.00 68 1005.8
20260504060137 17 233 12.9 14.5 0.00 0.00 0.00 68 1005.9
20260504050605 17 214 11.3 14.5 0.00 0.00 0.00 65 1006.0
20260504045559 17 213 14.5 16.1 0.00 0.00 0.00 64 1006.0
20260504045054 17 206 16.1 20.9 0.00 0.00 0.00 64 1006.2
20260504044552 17 227 14.5 14.5 0.00 0.00 0.00 65 1006.3
20260504044049 17 206 16.1 17.7 0.00 0.00 0.00 64 1006.5
20260504043546 17 219 20.9 24.1 0.00 0.00 0.00 63 1006.4
20260504043043 17 216 17.7 17.7 0.00 0.00 0.00 63 1006.8
20260504042540 17 179 16.1 17.7 0.00 0.00 0.00 63 1006.5
20260504042037 17 209 14.5 16.1 0.00 0.00 0.00 64 1006.7
20260504041533 17 220 19.3 24.1 0.00 0.00 0.00 63 1006.5
20260504041029 17 207 12.9 16.1 0.00 0.00 0.00 63 1006.7
20260504040527 16 216 14.5 14.5 0.00 0.00 0.00 64 1006.7
20260504040024 16 198 16.1 17.7 0.00 0.00 0.00 63 1006.9
20260504035521 16 199 11.3 14.5 0.00 0.00 0.00 65 1006.9
20260504035017 16 205 16.1 17.7 0.00 0.00 0.00 65 1006.7
20260504034515 16 204 14.5 16.1 0.00 0.00 0.00 65 1006.7
20260504034011 16 196 11.3 12.9 0.00 0.00 0.00 65 1006.9
20260504033509 16 204 16.1 17.7 0.00 0.00 0.00 65 1006.9
20260504033006 16 204 12.9 14.5 0.00 0.00 0.00 65 1007.0
20260504032503 16 184 12.9 14.5 0.00 0.00 0.00 66 1007.0
20260504032000 16 189 9.7 11.3 0.00 0.00 0.00 66 1007.0
20260504031456 16 211 11.3 12.9 0.00 0.00 0.00 65 1007.0
20260504030953 16 188 9.7 11.3 0.00 0.00 0.00 64 1007.0
20260504030450 16 219 8.0 9.7 0.00 0.00 0.00 64 1007.3
20260504025946 16 200 6.4 9.7 0.00 0.00 0.00 64 1007.5
20260504025443 16 181 6.4 9.7 0.00 0.00 0.00 63 1007.1
20260504024940 16 201 9.7 12.9 0.00 0.00 0.00 63 1007.5
20260504024437 16 209 9.7 12.9 0.00 0.00 0.00 63 1007.1
20260504023934 16 195 9.7 11.3 0.00 0.00 0.00 62 1007.5
20260504023431 16 201 6.4 9.7 0.00 0.00 0.00 63 1007.2
20260504022926 16 206 8.0 11.3 0.00 0.00 0.00 62 1007.1
20260504022423 16 211 8.0 9.7 0.00 0.00 0.00 61 1007.1
20260504021920 16 193 12.9 14.5 0.00 0.00 0.00 61 1007.3
20260504021417 16 195 11.3 17.7 0.00 0.00 0.00 60 1007.1
20260504020914 16 197 8.0 11.3 0.00 0.00 0.00 61 1006.9
20260504020411 16 201 8.0 9.7 0.00 0.00 0.00 61 1007.1
20260504015907 17 200 14.5 16.1 0.00 0.00 0.00 61 1007.1
20260504015403 16 198 8.0 9.7 0.00 0.00 0.00 61 1007.1
20260504014859 16 220 8.0 11.3 0.00 0.00 0.00 61 1007.2
20260504014355 17 211 9.7 12.9 0.00 0.00 0.00 60 1007.1
20260504013853 17 211 9.7 11.3 0.00 0.00 0.00 60 1007.1
20260504013351 17 180 12.9 16.1 0.00 0.00 0.00 59 1007.2
20260504012847 17 213 8.0 9.7 0.00 0.00 0.00 59 1007.2
20260504012345 17 194 12.9 14.5 0.00 0.00 0.00 59 1007.3
20260504011842 17 201 11.3 12.9 0.00 0.00 0.00 60 1007.1
20260504011338 17 192 6.4 9.7 0.00 0.00 0.00 59 1007.3
20260504010835 17 204 9.7 12.9 0.00 0.00 0.00 58 1007.1
20260504010330 17 195 11.3 14.5 0.00 0.00 0.00 56 1007.2
20260504005827 17 202 14.5 14.5 0.00 0.00 0.00 56 1007.1
20260504005324 17 185 12.9 14.5 0.00 0.00 0.00 56 1007.3
20260504004822 18 209 12.9 14.5 0.00 0.00 0.00 56 1007.1
20260504004319 18 204 16.1 16.1 0.00 0.00 0.00 56 1007.2
20260504003815 18 196 14.5 16.1 0.00 0.00 0.00 54 1007.2
20260504003313 18 197 9.7 12.9 0.00 0.00 0.00 56 1007.3
20260504002809 18 205 12.9 16.1 0.00 0.00 0.00 54 1007.5
20260504002306 18 195 11.3 12.9 0.00 0.00 0.00 53 1007.5
20260504001804 19 192 12.9 16.1 0.00 0.00 0.00 51 1007.6
20260504001300 19 202 14.5 16.1 0.00 0.00 0.00 52 1007.4
20260504000757 19 198 9.7 11.3 0.00 0.00 0.00 51 1007.4
20260504000254 20 207 14.5 16.1 0.00 0.00 0.00 51 1007.3
20260503235752 20 197 14.5 20.9 0.00 0.00 0.00 51 1007.2
20260503235249 20 210 8.0 11.3 0.00 0.00 0.00 51 1007.1
20260503234747 20 202 16.1 20.9 0.00 0.00 0.00 49 1007.4
20260503234245 20 213 19.3 22.5 0.00 0.00 0.00 47 1007.3
20260503233742 20 223 16.1 16.1 0.00 0.00 0.00 49 1007.5
20260503233237 20 209 20.9 25.7 0.00 0.00 0.00 48 1007.5
20260503232734 20 170 16.1 17.7 0.00 0.00 0.00 49 1007.3
20260503232232 20 197 14.5 17.7 0.00 0.00 0.00 48 1007.5
20260503231730 20 226 22.5 25.7 0.00 0.00 0.00 46 1007.2
20260503231226 20 207 20.9 25.7 0.00 0.00 0.00 47 1007.5
20260503230722 20 168 24.1 33.8 0.00 0.00 0.00 46 1007.4
20260503230220 20 194 24.1 27.4 0.00 0.00 0.00 47 1007.4
20260503225717 20 194 22.5 27.4 0.00 0.00 0.00 45 1007.4
20260503225217 20 194 22.5 27.4 0.00 0.00 0.00 47 1007.4
20260503224715 20 210 14.5 17.7 0.00 0.00 0.00 50 1007.4
20260503224212 20 190 20.9 25.7 0.00 0.00 0.00 48 1007.4
20260503223710 20 193 16.1 17.7 0.00 0.00 0.00 47 1007.6
20260503223207 20 200 24.1 29.0 0.00 0.00 0.00 49 1007.6
20260503222703 20 194 24.1 29.0 0.00 0.00 0.00 48 1007.7
20260503222201 20 199 16.1 17.7 0.00 0.00 0.00 48 1007.8
20260503221700 20 198 24.1 30.6 0.00 0.00 0.00 48 1007.7
20260503221156 20 178 19.3 29.0 0.00 0.00 0.00 47 1007.7
20260503220653 20 201 27.4 33.8 0.00 0.00 0.00 46 1007.8
20260503220149 20 193 35.4 38.6 0.00 0.00 0.00 45 1007.7
20260503215647 20 194 19.3 24.1 0.00 0.00 0.00 48 1007.9
20260503215143 20 208 20.9 29.0 0.00 0.00 0.00 48 1007.8
20260503214643 20 211 32.2 35.4 0.00 0.00 0.00 46 1008.1
20260503214138 20 201 27.4 35.4 0.00 0.00 0.00 46 1007.9
20260503213637 20 175 27.4 30.6 0.00 0.00 0.00 49 1008.1
20260503213133 20 158 20.9 24.1 0.00 0.00 0.00 45 1008.2
20260503212631 20 215 29.0 33.8 0.00 0.00 0.00 49 1008.3
20260503212128 20 217 25.7 30.6 0.00 0.00 0.00 47 1008.4
20260503211626 20 180 19.3 22.5 0.00 0.00 0.00 45 1008.5
20260503211121 20 199 22.5 27.4 0.00 0.00 0.00 45 1008.6
20260503210618 20 191 16.1 22.5 0.00 0.00 0.00 48 1008.8
20260503210115 20 178 22.5 25.7 0.00 0.00 0.00 48 1009.0
20260503205610 20 207 22.5 27.4 0.00 0.00 0.00 49 1009.0
20260503205107 20 187 27.4 33.8 0.00 0.00 0.00 48 1009.2
20260503204604 20 205 27.4 29.0 0.00 0.00 0.00 49 1009.2
20260503204101 20 186 25.7 30.6 0.00 0.00 0.00 49 1009.7
20260503203558 20 196 24.1 35.4 0.00 0.00 0.00 49 1009.5
20260503203055 20 176 25.7 30.6 0.00 0.00 0.00 48 1009.7
20260503202553 20 200 27.4 30.6 0.00 0.00 0.00 49 1010.2
20260503202051 19 199 24.1 27.4 0.00 0.00 0.00 51 1010.0
20260503201549 20 194 20.9 24.1 0.00 0.00 0.00 50 1010.1
20260503201046 19 209 27.4 33.8 0.00 0.00 0.00 50 1010.1
20260503200541 19 217 24.1 27.4 0.00 0.00 0.00 50 1010.4
20260503200038 19 178 17.7 22.5 0.00 0.00 0.00 52 1010.7
20260503195536 19 201 24.1 25.7 0.00 0.00 0.00 47 1010.7
20260503195032 19 210 22.5 25.7 0.00 0.00 0.00 53 1011.1
20260503194530 19 203 16.1 20.9 0.00 0.00 0.00 52 1011.3
20260503194029 19 201 30.6 38.6 0.00 0.00 0.00 50 1011.2
20260503193527 18 206 19.3 24.1 0.00 0.00 0.00 51 1011.3
20260503193021 18 195 19.3 30.6 0.00 0.00 0.00 51 1011.6
20260503192518 18 184 25.7 35.4 0.00 0.00 0.00 52 1011.8
20260503192014 18 182 22.5 24.1 0.00 0.00 0.00 49 1012.0
20260503191511 18 202 20.9 24.1 0.00 0.00 0.00 53 1012.1
20260503191008 18 221 32.2 37.0 0.00 0.00 0.00 49 1012.3
20260503190504 18 233 22.5 25.7 0.00 0.00 0.00 52 1012.3
20260503190001 18 235 14.5 17.7 0.00 0.00 0.00 55 1012.4
20260503185458 18 197 22.5 27.4 0.00 0.00 0.00 52 1012.5
20260503184957 18 203 19.3 22.5 0.00 0.00 0.00 50 1012.6
20260503184454 18 208 19.3 22.5 0.00 0.00 0.00 50 1012.7
20260503183950 18 213 32.2 35.4 0.00 0.00 0.00 50 1012.8
20260503183447 18 213 22.5 27.4 0.00 0.00 0.00 53 1013.1
20260503182944 18 202 17.7 22.5 0.00 0.00 0.00 54 1013.2
20260503182443 18 195 22.5 27.4 0.00 0.00 0.00 54 1013.2
20260503181940 17 208 17.7 24.1 0.00 0.00 0.00 54 1013.3
20260503181437 17 189 27.4 30.6 0.00 0.00 0.00 53 1013.4
20260503180933 17 188 14.5 17.7 0.00 0.00 0.00 56 1013.7
20260503180432 17 219 19.3 24.1 0.00 0.00 0.00 55 1013.6
20260503175928 17 227 16.1 17.7 0.00 0.00 0.00 55 1013.8
20260503175426 17 189 17.7 22.5 0.00 0.00 0.00 53 1014.1
20260503174921 17 220 25.7 29.0 0.00 0.00 0.00 53 1014.1
20260503174420 17 204 17.7 20.9 0.00 0.00 0.00 53 1014.3
20260503173920 17 193 32.2 40.2 0.00 0.00 0.00 53 1014.5
20260503173416 17 198 24.1 27.4 0.00 0.00 0.00 55 1014.5
20260503172913 16 194 37.0 41.8 0.00 0.00 0.00 53 1014.4
20260503172411 17 204 16.1 20.9 0.00 0.00 0.00 56 1014.5
20260503171907 16 199 19.3 24.1 0.00 0.00 0.00 55 1014.5
20260503171404 16 207 29.0 33.8 0.00 0.00 0.00 54 1014.7
20260503170901 16 191 16.1 24.1 0.00 0.00 0.00 57 1014.6
20260503170357 16 205 32.2 37.0 0.00 0.00 0.00 54 1014.7
20260503150749 13 200 19.3 22.5 0.00 0.00 0.00 66 1016.2
20260503150246 13 203 19.3 20.9 0.00 0.00 0.00 65 1016.3
20260503140210 12 188 14.5 16.1 0.00 0.00 0.00 73 1016.3
20260503131140 10 202 16.1 17.7 0.00 0.00 0.00 80 1016.4
20260503130637 10 194 9.7 11.3 0.00 0.00 0.00 81 1016.2
20260503130135 10 199 14.5 17.7 0.00 0.00 0.00 81 1016.1